Farmington, NM

7:04 PM MDT on April 24, 2018 (GMT -0600)
Four Corners Regional

Weather History for KFMN - May, 2013

Change the Weather History Date:

Thursday, May 2, 2013

  Actual Average Record
Temperature  
Mean Temperature 48 °F -  
Max Temperature 63 °F 70 °F 84 °F (1981)
Min Temperature 33 °F 37 °F 28 °F (2011)
Degree Days  
Heating Degree Days 17    
Moisture  
Dew Point 1 °F    
Average Humidity 14    
Maximum Humidity 35    
Minimum Humidity 4    
Precipitation  
Precipitation 0.00 in - - ()
Sea Level Pressure  
Sea Level Pressure 30.34 in    
Wind  
Wind Speed 7 mph (West)    
Max Wind Speed 21 mph    
Max Gust Speed 31 mph    
Visibility 10 miles    
Events      
Averages and records for this station are not official NWS values.
T = Trace of Precipitation, MM = Missing Value Source: NWS Daily Summary

Daily Weather History Graph

Daily Weather History Graph

Search for Another Location

Airport or City:

Astronomy

May. 02, 2013 Rise Set
Actual Time 6:17 AM MDT 8:02 PM MDT
Civil Twilight 5:49 AM MDT 8:30 PM MDT
Nautical Twilight 5:16 AM MDT 9:04 PM MDT
Astronomical Twilight 4:40 AM MDT 9:40 PM MDT
Moon 1:55 AM MDT (5/2) 1:06 PM MDT (5/2)
Length of Visible Light 14h 40m
Length of Day
13h 45m
Waning Gibbous, 47% of the Moon is Illuminated
May 2
Waning Gibbous
May 9
New
May 17
First Quarter
May 24
Full
May 31
Last Quarter

Hourly Weather History & Observations

Time (MDT) Temp. Windchill Dew Point Humidity Pressure Visibility Wind Dir Wind Speed Gust Speed Precip Events Conditions
12:53 AM 44.1 °F 39.5 °F -2.9 °F 14% 30.22 in 10.0 mi WNW 8.1 mph - N/A   Clear
1:53 AM 39.9 °F 35.8 °F -0.9 °F 18% 30.26 in 10.0 mi West 5.8 mph - N/A   Clear
2:53 AM 37.0 °F - 1.0 °F 22% 30.28 in 10.0 mi Calm Calm - N/A   Clear
3:53 AM 37.9 °F - 1.0 °F 21% 30.29 in 10.0 mi Calm Calm - N/A   Clear
4:53 AM 37.9 °F 34.4 °F 5.0 °F 25% 30.32 in 10.0 mi Variable 4.6 mph - N/A   Clear
5:53 AM 36.0 °F 32.1 °F 8.1 °F 31% 30.35 in 10.0 mi WNW 4.6 mph - N/A   Clear
6:53 AM 34.0 °F 31.0 °F 9.0 °F 35% 30.40 in 10.0 mi WSW 3.5 mph - N/A   Clear
7:53 AM 39.9 °F - 8.1 °F 27% 30.43 in 10.0 mi Calm Calm - N/A   Clear
8:53 AM 44.1 °F - 9.0 °F 24% 30.45 in 10.0 mi Calm Calm - N/A   Clear
9:53 AM 46.9 °F - 8.1 °F 21% 30.45 in 10.0 mi SW 4.6 mph - N/A   Clear
10:53 AM 51.1 °F - 1.9 °F 13% 30.43 in 10.0 mi Variable 3.5 mph - N/A   Clear
11:53 AM 55.0 °F - 6.1 °F 14% 30.41 in 10.0 mi Variable 5.8 mph - N/A   Clear
12:53 PM 57.0 °F - 5.0 °F 12% 30.40 in 10.0 mi West 11.5 mph 19.6 mph N/A   Clear
1:53 PM 60.1 °F - -0.9 °F 9% 30.38 in 10.0 mi West 8.1 mph 21.9 mph N/A   Clear
2:53 PM 60.1 °F - -2.0 °F 8% 30.36 in 10.0 mi SW 12.7 mph 21.9 mph N/A   Clear
3:53 PM 61.0 °F - -4.0 °F 7% 30.33 in 10.0 mi WSW 10.4 mph 21.9 mph N/A   Clear
4:53 PM 63.0 °F - -0.9 °F 8% 30.30 in 10.0 mi West 12.7 mph 23.0 mph N/A   Clear
5:53 PM 62.1 °F - -4.0 °F 7% 30.30 in 10.0 mi WSW 20.7 mph 27.6 mph N/A   Clear
6:53 PM 60.1 °F - -5.1 °F 7% 30.29 in 10.0 mi West 20.7 mph 31.1 mph N/A   Clear
7:53 PM 57.0 °F - -7.1 °F 7% 30.28 in 10.0 mi West 18.4 mph 26.5 mph N/A   Clear
8:53 PM 53.1 °F - -7.1 °F 8% 30.29 in 10.0 mi West 11.5 mph 20.7 mph N/A   Clear
9:53 PM 50.0 °F - -0.9 °F 12% 30.30 in 10.0 mi WNW 11.5 mph - N/A   Clear
10:53 PM 46.0 °F 44.8 °F -0.9 °F 14% 30.31 in 10.0 mi SW 3.5 mph - N/A   Clear
11:53 PM 44.1 °F 39.5 °F 1.9 °F 17% 30.29 in 10.0 mi West 8.1 mph - N/A   Clear